FW1414 Weather Reports


time (UTC)temp
C
wind
direction
speed
KPH
gust
KPH
rain 1hr
cm
rain 24hr
cm
rain mn
cm
humidity
%
barometer
mb
20260505153319 13 76 1.6 11.3 0.00 0.00 0.00 41 1012.0
20260505152809 13 56 3.2 11.3 0.00 0.00 0.00 42 1011.9
20260505152328 13 309 4.8 12.9 0.00 0.00 0.00 44 1011.9
20260505151819 13 319 4.8 12.9 0.00 0.00 0.00 44 1012.1
20260505151318 13 272 4.8 12.9 0.00 0.00 0.00 43 1012.1
20260505150851 13 265 4.8 12.9 0.00 0.00 0.00 43 1012.0
20260505150327 13 196 3.2 12.9 0.00 0.00 0.00 43 1012.0
20260505140312 12 247 4.8 16.1 0.00 0.00 0.00 45 1012.3
20260505130311 11 234 0.0 4.8 0.00 0.00 0.00 49 1012.4
20260505124835 10 227 1.6 3.2 0.00 0.00 0.00 49 1012.2
20260505124333 10 227 3.2 4.8 0.00 0.00 0.00 51 1012.2
20260505123824 10 227 3.2 4.8 0.00 0.00 0.00 49 1012.2
20260505123322 10 219 0.0 1.6 0.00 0.00 0.00 48 1012.2
20260505122813 10 219 0.0 4.8 0.00 0.00 0.00 47 1012.2
20260505122310 10 219 3.2 4.8 0.00 0.00 0.00 47 1012.1
20260505121844 10 250 0.0 3.2 0.00 0.00 0.00 46 1012.0
20260505121321 10 250 0.0 3.2 0.00 0.00 0.00 46 1011.9
20260505120834 10 250 1.6 3.2 0.00 0.00 0.00 45 1011.8
20260505120314 10 250 1.6 3.2 0.00 0.00 0.00 45 1011.8
20260505115844 10 250 1.6 6.4 0.00 0.00 0.00 45 1011.8
20260505115324 10 303 1.6 8.0 0.00 0.00 0.00 43 1011.6
20260505114816 10 360 3.2 8.0 0.00 0.00 0.00 44 1011.6
20260505114313 11 302 1.6 4.8 0.00 0.00 0.00 43 1011.6
20260505113827 11 300 1.6 4.8 0.00 0.00 0.00 43 1011.8
20260505113325 11 284 0.0 4.8 0.00 0.00 0.00 43 1011.8
20260505112816 11 267 1.6 4.8 0.00 0.00 0.00 44 1011.9
20260505112314 11 267 3.2 4.8 0.00 0.00 0.00 43 1011.9
20260505111848 11 263 3.2 4.8 0.00 0.00 0.00 43 1012.0
20260505111325 11 296 1.6 4.8 0.00 0.00 0.00 41 1011.9
20260505110837 11 292 1.6 4.8 0.00 0.00 0.00 41 1012.0
20260505110314 12 296 0.0 3.2 0.00 0.00 0.00 40 1011.9
20260505101828 12 296 3.2 8.0 0.00 0.00 0.00 38 1011.8
20260505101347 12 319 3.2 12.9 0.00 0.00 0.00 38 1011.8
20260505100818 12 317 3.2 16.1 0.00 0.00 0.00 37 1011.7
20260505100316 12 316 6.4 16.1 0.00 0.00 0.00 37 1011.6
20260505095830 12 275 8.0 16.1 0.00 0.00 0.00 36 1011.6
20260505095327 12 305 6.4 12.9 0.00 0.00 0.00 36 1011.6
20260505094819 12 307 4.8 14.5 0.00 0.00 0.00 36 1011.7
20260505094317 12 309 8.0 14.5 0.00 0.00 0.00 36 1011.7
20260505093831 12 289 4.8 14.5 0.00 0.00 0.00 36 1011.6
20260505093311 12 296 6.4 14.5 0.00 0.00 0.00 35 1011.5
20260505092825 12 317 4.8 14.5 0.00 0.00 0.00 35 1011.6
20260505092322 12 290 3.2 16.1 0.00 0.00 0.00 34 1011.7
20260505091813 12 311 6.4 16.1 0.00 0.00 0.00 34 1011.6
20260505091311 12 312 4.8 11.3 0.00 0.00 0.00 35 1011.6
20260505090823 13 277 3.2 11.3 0.00 0.00 0.00 36 1011.6
20260505090322 13 282 6.4 11.3 0.00 0.00 0.00 35 1011.6
20260505085835 13 289 4.8 8.0 0.00 0.00 0.00 36 1011.6
20260505085312 13 277 3.2 14.5 0.00 0.00 0.00 36 1011.7
20260505084824 13 271 6.4 17.7 0.00 0.00 0.00 36 1011.7
20260505084322 13 293 9.7 17.7 0.00 0.00 0.00 35 1011.8
20260505083813 13 313 6.4 16.1 0.00 0.00 0.00 35 1012.0
20260505083310 13 240 6.4 19.3 0.00 0.00 0.00 35 1012.0
20260505082824 13 304 6.4 19.3 0.00 0.00 0.00 35 1012.0
20260505082344 13 257 8.0 17.7 0.00 0.00 0.00 35 1012.1
20260505081814 13 273 9.7 17.7 0.00 0.00 0.00 35 1012.2
20260505081311 13 282 8.0 17.7 0.00 0.00 0.00 34 1012.2
20260505080823 13 9 1.6 8.0 0.00 0.00 0.00 33 1012.3
20260505080322 13 9 3.2 16.1 0.00 0.00 0.00 33 1012.4
20260505075836 13 9 6.4 16.1 0.00 0.00 0.00 33 1012.3
20260505075335 13 24 3.2 9.7 0.00 0.00 0.00 33 1012.2
20260505074825 13 33 1.6 4.8 0.00 0.00 0.00 34 1012.2
20260505074322 13 76 0.0 6.4 0.00 0.00 0.00 33 1012.3
20260505073835 13 75 1.6 6.4 0.00 0.00 0.00 34 1012.2
20260505073311 13 78 0.0 3.2 0.00 0.00 0.00 33 1012.2
20260505072824 13 78 0.0 3.2 0.00 0.00 0.00 32 1012.0
20260505072321 14 78 0.0 4.8 0.00 0.00 0.00 32 1011.8
20260505071836 14 78 0.0 4.8 0.00 0.00 0.00 31 1011.8
20260505071316 14 46 3.2 6.4 0.00 0.00 0.00 30 1011.8
20260505070846 15 33 1.6 6.4 0.00 0.00 0.00 30 1011.8
20260505070344 15 49 3.2 6.4 0.00 0.00 0.00 29 1012.0
20260505065817 15 77 1.6 11.3 0.00 0.00 0.00 29 1012.0
20260505065315 15 185 4.8 11.3 0.00 0.00 0.00 29 1012.2
20260505064827 15 236 3.2 14.5 0.00 0.00 0.00 28 1012.2
20260505064325 15 259 6.4 14.5 0.00 0.00 0.00 29 1012.0
20260505063816 15 309 8.0 20.9 0.00 0.00 0.00 28 1011.9
20260505063313 15 227 8.0 20.9 0.00 0.00 0.00 28 1011.8
20260505062826 15 239 8.0 19.3 0.00 0.00 0.00 28 1011.7
20260505062324 15 305 6.4 24.1 0.00 0.00 0.00 28 1011.6
20260505061814 15 296 9.7 24.1 0.00 0.00 0.00 28 1011.7
20260505061336 15 287 11.3 22.5 0.00 0.00 0.00 28 1011.6
20260505060849 16 260 6.4 27.4 0.00 0.00 0.00 28 1011.6
20260505060325 16 209 11.3 27.4 0.00 0.00 0.00 28 1011.6
20260505055837 15 264 8.0 25.7 0.00 0.00 0.00 29 1011.6
20260505055335 15 203 8.0 19.3 0.00 0.00 0.00 29 1011.6
20260505054827 15 244 4.8 17.7 0.00 0.00 0.00 31 1011.8
20260505054325 15 205 8.0 17.7 0.00 0.00 0.00 31 1011.8
20260505053816 15 279 4.8 11.3 0.00 0.00 0.00 31 1011.6
20260505053313 16 236 4.8 17.7 0.00 0.00 0.00 31 1011.4
20260505052826 16 232 6.4 19.3 0.00 0.00 0.00 31 1011.3
20260505052345 16 263 9.7 19.3 0.00 0.00 0.00 32 1011.2
20260505051817 16 223 4.8 12.9 0.00 0.00 0.00 32 1011.3
20260505051314 16 210 6.4 12.9 0.00 0.00 0.00 32 1011.2
20260505050825 16 211 6.4 12.9 0.00 0.00 0.00 32 1011.2
20260505050323 16 190 4.8 8.0 0.00 0.00 0.00 32 1011.3
20260505041320 16 248 6.4 11.3 0.00 0.00 0.00 32 1011.2
20260505040810 16 207 4.8 6.4 0.00 0.00 0.00 31 1011.3
20260505040329 16 215 3.2 9.7 0.00 0.00 0.00 30 1011.3
20260505035821 16 212 3.2 9.7 0.00 0.00 0.00 30 1011.4
20260505035320 16 219 4.8 11.3 0.00 0.00 0.00 31 1011.4
20260505034810 16 224 4.8 11.3 0.00 0.00 0.00 30 1011.4
20260505034329 16 251 6.4 9.7 0.00 0.00 0.00 30 1011.6
20260505033821 16 206 4.8 9.7 0.00 0.00 0.00 30 1011.6
20260505033319 16 212 4.8 12.9 0.00 0.00 0.00 30 1011.4
20260505032809 16 217 6.4 14.5 0.00 0.00 0.00 28 1011.3
20260505032328 16 239 8.0 16.1 0.00 0.00 0.00 29 1011.3
20260505031820 16 223 8.0 16.1 0.00 0.00 0.00 29 1011.4
20260505031317 17 244 4.8 11.3 0.00 0.00 0.00 28 1011.3
20260505030809 17 253 1.6 9.7 0.00 0.00 0.00 27 1011.2
20260505030351 17 232 4.8 14.5 0.00 0.00 0.00 27 1011.2
20260505025822 17 275 6.4 14.5 0.00 0.00 0.00 26 1011.1
20260505025342 17 234 3.2 8.0 0.00 0.00 0.00 26 1011.1
20260505024813 17 360 4.8 8.0 0.00 0.00 0.00 25 1011.0
20260505024310 17 360 3.2 14.5 0.00 0.00 0.00 25 1011.0
20260505023822 17 360 6.4 16.1 0.00 0.00 0.00 24 1010.9
20260505023324 17 360 6.4 20.9 0.00 0.00 0.00 24 1010.9
20260505022839 17 360 9.7 20.9 0.00 0.00 0.00 24 1010.8
20260505022315 17 360 8.0 16.1 0.00 0.00 0.00 24 1010.8
20260505021828 17 360 4.8 12.9 0.00 0.00 0.00 24 1010.8
20260505021347 17 360 4.8 14.5 0.00 0.00 0.00 23 1010.8
20260505020817 18 360 6.4 16.1 0.00 0.00 0.00 23 1011.0
20260505020315 18 360 4.8 16.1 0.00 0.00 0.00 22 1010.8
20260505015827 18 360 3.2 12.9 0.00 0.00 0.00 22 1010.8
20260505015324 18 360 6.4 12.9 0.00 0.00 0.00 22 1010.8
20260505014815 18 360 6.4 20.9 0.00 0.00 0.00 21 1010.7
20260505014313 18 360 11.3 20.9 0.00 0.00 0.00 21 1010.6
20260505013826 18 360 8.0 25.7 0.00 0.00 0.00 21 1010.6
20260505013325 18 360 9.7 25.7 0.00 0.00 0.00 20 1010.5
20260505012815 19 360 8.0 24.1 0.00 0.00 0.00 19 1010.4
20260505012313 19 360 8.0 19.3 0.00 0.00 0.00 19 1010.4
20260505011825 19 360 8.0 22.5 0.00 0.00 0.00 19 1010.2
20260505011323 19 360 9.7 22.5 0.00 0.00 0.00 18 1010.3
20260505010837 19 360 8.0 24.1 0.00 0.00 0.00 18 1010.3
20260505010335 20 360 11.3 24.1 0.00 0.00 0.00 19 1010.2
20260505005826 20 360 6.4 24.1 0.00 0.00 0.00 19 1010.2
20260505005324 20 360 11.3 24.1 0.00 0.00 0.00 18 1010.2
20260505004814 20 360 6.4 16.1 0.00 0.00 0.00 18 1010.2
20260505004312 20 360 4.8 32.2 0.00 0.00 0.00 18 1010.2
20260505003825 20 360 8.0 32.2 0.00 0.00 0.00 18 1010.3
20260505003327 20 265 11.3 24.1 0.00 0.00 0.00 17 1010.4
20260505002817 20 293 9.7 24.1 0.00 0.00 0.00 17 1010.4
20260505002316 20 292 8.0 20.9 0.00 0.00 0.00 17 1010.4
20260505001827 20 267 11.3 22.5 0.00 0.00 0.00 17 1010.4
20260505001325 20 360 12.9 32.2 0.00 0.00 0.00 17 1010.3
20260505000816 20 360 19.3 32.2 0.00 0.00 0.00 16 1010.2
20260505000314 21 360 11.3 33.8 0.00 0.00 0.00 17 1010.3
20260504235826 21 360 14.5 33.8 0.00 0.00 0.00 17 1010.5
20260504235323 21 360 6.4 25.7 0.00 0.00 0.00 17 1010.4
20260504234814 21 360 12.9 25.7 0.00 0.00 0.00 17 1010.4
20260504234312 21 360 14.5 24.1 0.00 0.00 0.00 16 1010.4
20260504233824 21 360 8.0 22.5 0.00 0.00 0.00 18 1010.6
20260504233322 21 360 12.9 22.5 0.00 0.00 0.00 17 1010.4
20260504232813 21 280 9.7 20.9 0.00 0.00 0.00 18 1010.6
20260504232310 21 259 4.8 30.6 0.00 0.00 0.00 19 1010.6
20260504231845 22 240 11.3 30.6 0.00 0.00 0.00 17 1010.6
20260504231321 22 205 9.7 24.1 0.00 0.00 0.00 18 1010.6
20260504230812 22 223 11.3 40.2 0.00 0.00 0.00 20 1010.6
20260504230315 21 360 20.9 40.2 0.00 0.00 0.00 19 1010.6
20260504225828 21 360 16.1 25.7 0.00 0.00 0.00 18 1010.7
20260504225325 21 360 9.7 24.1 0.00 0.00 0.00 19 1010.8
20260504224816 21 360 6.4 24.1 0.00 0.00 0.00 19 1010.8
20260504224314 21 360 11.3 22.5 0.00 0.00 0.00 19 1010.7
20260504223826 21 360 12.9 22.5 0.00 0.00 0.00 19 1011.0
20260504223324 20 360 9.7 30.6 0.00 0.00 0.00 19 1011.0
20260504222815 20 360 14.5 30.6 0.00 0.00 0.00 18 1011.1
20260504222313 20 360 6.4 22.5 0.00 0.00 0.00 20 1011.0
20260504221826 20 360 12.9 22.5 0.00 0.00 0.00 19 1011.0
20260504221324 20 213 9.7 20.9 0.00 0.00 0.00 18 1011.2
20260504220838 21 282 9.7 25.7 0.00 0.00 0.00 18 1011.3
20260504220315 21 269 9.7 25.7 0.00 0.00 0.00 17 1011.3
20260504215827 21 322 9.7 25.7 0.00 0.00 0.00 19 1011.2
20260504215326 21 282 11.3 25.7 0.00 0.00 0.00 17 1011.4
20260504214817 21 258 6.4 20.9 0.00 0.00 0.00 17 1011.4
20260504214316 21 217 8.0 19.3 0.00 0.00 0.00 18 1011.5
20260504213828 21 219 4.8 22.5 0.00 0.00 0.00 18 1011.6
20260504213326 21 161 9.7 22.5 0.00 0.00 0.00 17 1011.7
20260504212821 21 294 12.9 29.0 0.00 0.00 0.00 16 1011.7
20260504212318 21 306 12.9 29.0 0.00 0.00 0.00 17 1011.8
20260504211810 21 270 9.7 27.4 0.00 0.00 0.00 17 1011.9
20260504211328 21 237 12.9 24.1 0.00 0.00 0.00 16 1012.0
20260504210819 21 217 12.9 37.0 0.00 0.00 0.00 16 1012.1
20260504210317 21 239 19.3 37.0 0.00 0.00 0.00 14 1012.2
20260504205851 21 223 12.9 29.0 0.00 0.00 0.00 15 1012.2
20260504205349 21 209 20.9 30.6 0.00 0.00 0.00 15 1012.3
20260504204821 21 190 14.5 30.6 0.00 0.00 0.00 16 1012.3
20260504204340 21 233 16.1 29.0 0.00 0.00 0.00 14 1012.4
20260504203832 21 217 9.7 29.0 0.00 0.00 0.00 14 1012.5
20260504203310 21 225 11.3 30.6 0.00 0.00 0.00 14 1012.6
20260504202821 21 223 16.1 30.6 0.00 0.00 0.00 14 1012.7
20260504202319 21 251 12.9 30.6 0.00 0.00 0.00 15 1012.7
20260504201811 21 232 19.3 32.2 0.00 0.00 0.00 15 1012.8
20260504201330 21 252 14.5 32.2 0.00 0.00 0.00 15 1012.8
20260504200843 21 206 12.9 30.6 0.00 0.00 0.00 16 1012.8
20260504200320 21 185 6.4 22.5 0.00 0.00 0.00 16 1012.6
20260504195811 21 258 12.9 22.5 0.00 0.00 0.00 16 1012.8
20260504195330 21 263 16.1 29.0 0.00 0.00 0.00 16 1012.8
20260504194821 21 246 11.3 29.0 0.00 0.00 0.00 18 1012.6
20260504194341 21 284 14.5 27.4 0.00 0.00 0.00 17 1013.0
20260504193810 21 262 14.5 27.4 0.00 0.00 0.00 18 1013.0
20260504193330 21 224 12.9 30.6 0.00 0.00 0.00 22 1012.9
20260504192821 21 205 8.0 32.2 0.00 0.00 0.00 21 1013.0
20260504192322 21 225 14.5 32.2 0.00 0.00 0.00 19 1013.0
20260504191815 21 219 11.3 25.7 0.00 0.00 0.00 21 1013.1
20260504191313 20 220 12.9 24.1 0.00 0.00 0.00 22 1013.2
20260504190825 20 186 9.7 25.7 0.00 0.00 0.00 19 1013.0
20260504190324 20 220 6.4 25.7 0.00 0.00 0.00 21 1013.1
20260504185815 20 232 16.1 25.7 0.00 0.00 0.00 21 1013.1
20260504185312 20 184 11.3 30.6 0.00 0.00 0.00 20 1013.1
20260504184824 20 196 12.9 30.6 0.00 0.00 0.00 21 1013.2
20260504184322 20 212 14.5 30.6 0.00 0.00 0.00 20 1013.3
20260504183813 20 215 6.4 22.5 0.00 0.00 0.00 21 1013.4
20260504183312 20 280 11.3 22.5 0.00 0.00 0.00 21 1012.9
20260504182824 20 240 12.9 24.1 0.00 0.00 0.00 20 1013.4
20260504182322 20 239 11.3 24.1 0.00 0.00 0.00 21 1013.5
20260504181812 20 193 8.0 17.7 0.00 0.00 0.00 21 1013.4
20260504181332 20 202 11.3 20.9 0.00 0.00 0.00 23 1013.5
20260504180823 20 173 6.4 22.5 0.00 0.00 0.00 22 1013.7
20260504180321 20 192 11.3 22.5 0.00 0.00 0.00 24 1013.6
20260504175812 20 119 6.4 17.7 0.00 0.00 0.00 28 1013.8
20260504175332 20 247 4.8 19.3 0.00 0.00 0.00 27 1014.0
20260504174846 20 228 11.3 19.3 0.00 0.00 0.00 25 1014.2
20260504174323 20 180 4.8 22.5 0.00 0.00 0.00 27 1014.2
20260504173814 20 223 8.0 22.5 0.00 0.00 0.00 28 1014.3
20260504173311 20 242 9.7 16.1 0.00 0.00 0.00 30 1014.2
20260504172823 19 221 8.0 16.1 0.00 0.00 0.00 33 1014.0
20260504172321 19 135 6.4 14.5 0.00 0.00 0.00 31 1014.1
20260504171816 18 155 4.8 12.9 0.00 0.00 0.00 33 1014.4
20260504171314 18 207 6.4 16.1 0.00 0.00 0.00 33 1014.3
20260504170826 18 103 8.0 16.1 0.00 0.00 0.00 31 1014.2
20260504170346 18 182 1.6 9.7 0.00 0.00 0.00 34 1014.3
20260504160326 17 200 3.2 11.3 0.00 0.00 0.00 43 1014.9